FW5335 Weather Reports


time (UTC)temp
C
wind
direction
speed
KPH
gust
KPH
rain 1hr
cm
rain 24hr
cm
rain mn
cm
humidity
%
barometer
mb
20260902025539 14 0.0 0.0 0.00 0.00 0.00 88 1020.5
20260902024520 14 0.0 1.6 0.00 0.00 0.00 88 1020.4
20260902023520 14 0.0 1.6 0.00 0.00 0.00 88 1020.6
20260902022518 14 0.0 0.0 0.00 0.00 0.00 89 1020.7
20260902021518 14 0.0 1.6 0.00 0.00 0.00 88 1020.8
20260902020520 14 203 1.6 3.2 0.00 0.00 0.00 89 1020.7
20260902015523 14 0.0 1.6 0.00 0.00 0.00 88 1020.7
20260902014520 14 0.0 3.2 0.00 0.00 0.00 88 1021.0
20260902013520 14 203 1.6 3.2 0.00 0.00 0.00 88 1021.2
20260902012520 14 0.0 1.6 0.00 0.00 0.00 87 1021.2
20260902011543 14 0.0 0.0 0.00 0.00 0.00 86 1021.3
20260902010517 14 0.0 0.0 0.00 0.00 0.00 85 1021.3
20260902005517 15 0.0 1.6 0.00 0.00 0.00 85 1021.3
20260902004517 15 0.0 0.0 0.00 0.00 0.00 85 1021.3
20260902003517 15 0.0 0.0 0.00 0.00 0.00 85 1021.4
20260902002520 15 0.0 0.0 0.00 0.00 0.00 85 1021.4
20260902001519 15 0.0 0.0 0.00 0.00 0.00 85 1021.5
20260902000517 15 203 1.6 3.2 0.00 0.00 0.00 84 1021.6
20260901235517 15 0.0 0.0 0.00 0.00 0.00 84 1021.6
20260901234517 15 0.0 3.2 0.00 0.00 0.00 83 1021.7
20260901233520 15 203 1.6 3.2 0.00 0.00 0.00 83 1021.9
20260901232537 15 203 1.6 3.2 0.00 0.00 0.00 82 1021.9
20260901231519 15 0.0 3.2 0.00 0.00 0.00 82 1021.9
20260901230521 15 0.0 1.6 0.00 0.00 0.00 81 1021.6
20260901225520 16 0.0 1.6 0.00 0.00 0.00 81 1021.4
20260901224517 16 203 1.6 3.2 0.00 0.00 0.00 81 1021.6
20260901223519 16 203 1.6 4.8 0.00 0.00 0.00 81 1021.3
20260901222517 16 203 1.6 4.8 0.00 0.00 0.00 80 1021.4
20260901221527 16 225 3.2 6.4 0.00 0.00 0.00 80 1021.3
20260901220523 16 225 3.2 6.4 0.00 0.00 0.00 80 1021.2
20260901215521 16 203 3.2 4.8 0.00 0.00 0.00 79 1021.3
20260901214624 16 203 3.2 6.4 0.00 0.00 0.00 79 1021.4
20260901213525 16 203 3.2 8.0 0.00 0.00 0.00 79 1021.6
20260901212521 16 203 3.2 4.8 0.00 0.00 0.00 78 1021.5
20260901211540 16 225 4.8 8.0 0.00 0.00 0.00 78 1021.6
20260901210517 16 225 4.8 8.0 0.00 0.00 0.00 78 1021.6
20260901205520 16 203 4.8 8.0 0.00 0.00 0.00 77 1021.8
20260901204523 16 225 3.2 9.7 0.00 0.00 0.00 77 1021.8
20260901203519 16 225 3.2 8.0 0.00 0.00 0.00 77 1021.8
20260901202518 16 225 3.2 6.4 0.00 0.00 0.00 77 1021.8
20260901201517 17 225 4.8 9.7 0.00 0.00 0.00 76 1021.9
20260901200520 17 225 3.2 6.4 0.00 0.00 0.00 76 1021.6
20260901195518 17 225 3.2 6.4 0.00 0.00 0.00 75 1021.6
20260901194540 17 225 4.8 8.0 0.00 0.00 0.00 74 1021.6
20260901193520 17 225 3.2 8.0 0.00 0.00 0.00 74 1021.7
20260901192522 17 225 4.8 8.0 0.00 0.00 0.00 73 1021.6
20260901191518 17 225 4.8 8.0 0.00 0.00 0.00 72 1021.5
20260901190520 18 225 4.8 8.0 0.00 0.00 0.00 71 1021.5
20260901185520 18 225 8.0 14.5 0.00 0.00 0.00 70 1021.4
20260901184543 18 225 6.4 16.1 0.00 0.00 0.00 69 1021.1
20260901183519 18 225 9.7 16.1 0.00 0.00 0.00 68 1021.2
20260901182518 18 225 8.0 17.7 0.00 0.00 0.00 68 1021.3
20260901181524 19 225 8.0 16.1 0.00 0.00 0.00 67 1021.2
20260901180518 19 225 6.4 14.5 0.00 0.00 0.00 66 1021.3
20260901175539 19 225 9.7 14.5 0.00 0.00 0.00 65 1021.2
20260901174519 20 225 6.4 12.9 0.00 0.00 0.00 64 1021.4
20260901173541 20 225 4.8 8.0 0.00 0.00 0.00 64 1021.4
20260901172559 20 225 9.7 17.7 0.00 0.00 0.00 62 1021.5
20260901171519 20 225 9.7 19.3 0.00 0.00 0.00 62 1021.6
20260901170517 20 225 9.7 17.7 0.00 0.00 0.00 60 1021.5
20260901165519 21 225 11.3 22.5 0.00 0.00 0.00 60 1021.2
20260901164543 21 225 9.7 19.3 0.00 0.00 0.00 58 1021.1
20260901163519 21 225 8.0 17.7 0.00 0.00 0.00 55 1021.0
20260901162519 21 248 8.0 14.5 0.00 0.00 0.00 55 1021.4
20260901161519 21 270 8.0 17.7 0.00 0.00 0.00 53 1021.3
20260901160519 22 248 9.7 20.9 0.00 0.00 0.00 52 1021.2
20260901155519 22 225 8.0 16.1 0.00 0.00 0.00 52 1021.3
20260901154522 22 270 6.4 12.9 0.00 0.00 0.00 56 1021.5
20260901153521 22 248 6.4 19.3 0.00 0.00 0.00 56 1021.6
20260901152519 22 248 6.4 14.5 0.00 0.00 0.00 52 1021.6
20260901151521 22 270 8.0 19.3 0.00 0.00 0.00 51 1021.4
20260901150536 22 225 6.4 14.5 0.00 0.00 0.00 51 1021.5
20260901145520 22 225 6.4 14.5 0.00 0.00 0.00 53 1021.2
20260901144525 22 225 6.4 16.1 0.00 0.00 0.00 56 1021.6
20260901143517 22 248 8.0 17.7 0.00 0.00 0.00 55 1021.6
20260901142520 21 270 8.0 14.5 0.00 0.00 0.00 57 1021.7
20260901141522 22 270 6.4 14.5 0.00 0.00 0.00 55 1021.7
20260901140519 22 225 11.3 19.3 0.00 0.00 0.00 52 1021.8
20260901135518 22 248 8.0 16.1 0.00 0.00 0.00 57 1021.8
20260901134518 22 225 6.4 16.1 0.00 0.00 0.00 56 1021.8
20260901133519 22 248 6.4 16.1 0.00 0.00 0.00 56 1021.9
20260901132518 21 248 9.7 19.3 0.00 0.00 0.00 59 1022.0
20260901131518 21 270 8.0 17.7 0.00 0.00 0.00 58 1021.8
20260901130519 21 248 9.7 17.7 0.00 0.00 0.00 57 1021.7
20260901125520 22 248 11.3 17.7 0.00 0.00 0.00 55 1021.7
20260901124601 22 225 6.4 17.7 0.00 0.00 0.00 51 1021.8
20260901123521 23 248 9.7 16.1 0.00 0.00 0.00 48 1021.9
20260901122519 22 248 8.0 14.5 0.00 0.00 0.00 53 1022.0
20260901121538 23 225 4.8 11.3 0.00 0.00 0.00 51 1021.8
20260901120526 23 248 6.4 12.9 0.00 0.00 0.00 49 1021.9
20260901115521 23 225 9.7 16.1 0.00 0.00 0.00 50 1022.1
20260901114541 23 248 11.3 17.7 0.00 0.00 0.00 51 1022.2
20260901113539 22 248 4.8 16.1 0.00 0.00 0.00 52 1022.3
20260901112518 23 248 11.3 22.5 0.00 0.00 0.00 51 1022.1
20260901111518 23 225 4.8 11.3 0.00 0.00 0.00 55 1022.2
20260901110519 21 203 9.7 19.3 0.00 0.00 0.00 57 1022.5
20260901105518 20 248 8.0 17.7 0.00 0.00 0.00 61 1022.3
20260901104542 21 270 4.8 9.7 0.00 0.00 0.00 63 1022.4
20260901103519 21 225 3.2 11.3 0.00 0.00 0.00 62 1022.6
20260901102541 21 225 8.0 14.5 0.00 0.00 0.00 61 1022.5
20260901101539 22 225 8.0 17.7 0.00 0.00 0.00 61 1022.7
20260901100521 21 248 11.3 17.7 0.00 0.00 0.00 61 1022.7
20260901095541 21 225 8.0 16.1 0.00 0.00 0.00 64 1022.8
20260901094521 21 248 6.4 12.9 0.00 0.00 0.00 64 1022.9
20260901092518 20 225 8.0 16.1 0.00 0.00 0.00 71 1022.9
20260901091520 18 225 9.7 17.7 0.00 0.00 0.00 71 1022.8
20260901090520 18 225 9.7 17.7 0.00 0.00 0.00 74 1022.9
20260901085520 17 225 4.8 6.4 0.00 0.00 0.00 78 1022.6
20260901083524 15 270 4.8 6.4 0.00 0.00 0.00 83 1022.4
20260901082521 15 248 3.2 6.4 0.00 0.00 0.00 84 1022.4
20260901081520 15 248 1.6 6.4 0.00 0.00 0.00 85 1022.3
20260901080541 14 225 3.2 6.4 0.00 0.00 0.00 85 1022.4
20260901075541 14 248 4.8 6.4 0.00 0.00 0.00 86 1022.3
20260901074542 13 225 4.8 9.7 0.00 0.00 0.00 87 1022.4
20260901073538 13 248 4.8 8.0 0.00 0.00 0.00 88 1022.3
20260901072518 13 248 3.2 6.4 0.00 0.03 0.00 90 1022.1
20260901071559 13 270 3.2 6.4 0.00 0.03 0.00 91 1022.4
20260901070540 12 248 3.2 4.8 0.00 0.03 0.00 92 1022.0
20260901065519 12 0.0 0.0 0.00 0.03 0.00 93 1022.1
20260901064524 12 0.0 0.0 0.00 0.03 0.00 93 1022.1
20260901063538 11 0.0 0.0 0.00 0.03 0.00 93 1022.1
20260901062523 11 0.0 0.0 0.00 0.03 0.00 94 1021.9
20260901061520 11 0.0 0.0 0.00 0.03 0.00 94 1021.8
20260901060520 10 0.0 0.0 0.00 0.03 0.00 93 1021.8
20260901055523 10 0.0 0.0 0.00 0.03 0.00 93 1021.6
20260901054523 10 0.0 0.0 0.00 0.03 0.00 92 1021.5
20260901053519 10 0.0 0.0 0.00 0.03 0.00 92 1021.4
20260901052518 10 0.0 0.0 0.00 0.03 0.00 92 1021.3
20260901051517 10 0.0 0.0 0.00 0.03 0.00 92 1021.2
20260901050520 10 0.0 0.0 0.00 0.03 0.00 91 1021.1
20260901045519 10 0.0 0.0 0.00 0.03 0.00 91 1021.2
20260901044520 10 0.0 0.0 0.00 0.03 0.00 90 1021.1
20260901043522 10 0.0 0.0 0.00 0.03 0.00 90 1021.1
20260901042528 10 0.0 0.0 0.00 0.03 0.00 91 1021.1
20260901041519 10 0.0 0.0 0.00 0.03 0.00 91 1021.1
20260901040538 10 0.0 0.0 0.00 0.03 0.00 90 1021.0
20260901035520 10 0.0 0.0 0.00 0.03 0.00 90 1021.0
20260901034517 10 0.0 0.0 0.00 0.03 0.00 90 1021.1
20260901033518 10 0.0 0.0 0.00 0.03 0.00 90 1021.0
20260901032518 10 0.0 0.0 0.00 0.03 0.00 91 1020.9
20260901031519 10 0.0 0.0 0.00 0.03 0.00 90 1021.1
20260901030517 10 0.0 0.0 0.00 0.03 0.00 90 1021.1